This is the latest recevied weather packets stored in our database for station/object KB2EAR-13. If no packets are shown the sender has not sent any weather packets the latest 10 day(s).
| Time | Temp. | Humidity | Pressure | Rain* | Wind** | Luminosity | Snow |
|---|---|---|---|---|---|---|---|
| 1778259317 | 16.67° C | 43% | 1013.1 hPa | 0 mm | - | - | - |
| 1778259017 | 16.67° C | 43% | 1013.1 hPa | 0 mm | - | - | - |
| 1778258717 | 16.67° C | 42% | 1013.1 hPa | 0 mm | - | - | - |
| 1778258417 | 16.11° C | 43% | 1013.3 hPa | 0 mm | - | - | - |
| 1778258117 | 16.11° C | 42% | 1013.4 hPa | 0 mm | - | - | - |
| 1778257818 | 16.11° C | 43% | 1013.6 hPa | 0 mm | - | - | - |
| 1778257518 | 16.11° C | 42% | 1013.7 hPa | 0 mm | - | - | - |
| 1778257218 | 16.11° C | 43% | 1013.7 hPa | 0 mm | - | - | - |
| 1778256917 | 15.56° C | 48% | 1013.6 hPa | 0 mm | - | - | - |
| 1778256617 | 15.56° C | 46% | 1013.7 hPa | 0 mm | - | - | - |
| 1778256318 | 15° C | 47% | 1013.9 hPa | 0 mm | - | - | - |
| 1778256112 | 15° C | 45% | 1014 hPa | 0 mm | - | - | - |
| 1778256037 | 15° C | 46% | 1014 hPa | 0 mm | - | - | - |
| 1778255717 | 15° C | 46% | 1014 hPa | 0 mm | - | - | - |
| 1778255417 | 15° C | 45% | 1014 hPa | 0 mm | - | - | - |
| 1778255117 | 15° C | 45% | 1013.9 hPa | 0 mm | - | - | - |
| 1778254817 | 15° C | 45% | 1014 hPa | 0 mm | - | - | - |
| 1778254716 | 15° C | 45% | 1014 hPa | 0 mm | - | - | - |
| 1778254517 | 15° C | 45% | 1014 hPa | 0 mm | - | - | - |
| 1778254217 | 15° C | 44% | 1014 hPa | 0 mm | - | - | - |
| 1778253917 | 15° C | 45% | 1014.1 hPa | 0 mm | - | - | - |
| 1778253618 | 15° C | 45% | 1014.1 hPa | 0 mm | - | - | - |
| 1778253317 | 15° C | 44% | 1014 hPa | 0 mm | - | - | - |
| 1778253017 | 15° C | 45% | 1013.8 hPa | 0 mm | - | - | - |
| 1778252717 | 15° C | 47% | 1013.8 hPa | 0 mm | - | - | - |
* Rain latest hour (hover to see other rain measurements)
** Current wind speed in m/s (hover to see current wind gust speed)